Location: Newark
(50.8547°N, 2.7256°E)
Time: 07:27:26
(UTC+00:00)

Envisat - Pass Details

Date: 29 January 2020
Orbit: 764 x 766 km, 98.1° (Epoch: 20 February)

Event Time Altitude Azimuth Distance (km) Brightness Sun altitude
Rises 18:20:32 0° 192° (SSW) 3,221 6.5 -16.7°
Reaches altitude 10° 18:23:03 10° 202° (SSW) 2,300 5.9 -17.1°
Maximum altitude 18:27:35 32° 265° (W) 1,292 4.9 -17.8°
Drops below altitude 10° 18:32:09 10° 329° (NNW) 2,315 5.8 -18.5°
Sets 18:34:42 0° 339° (NNW) 3,246 6.4 -18.9°
